This is the latest recevied weather packets stored in our database for station/object N0MPM-4. If no packets are shown the sender has not sent any weather packets the latest 1 day(s).
| Time | Temp. | Humidity | Pressure | Rain* | Wind** | Luminosity | Snow |
|---|---|---|---|---|---|---|---|
| 1778044478 | 5.56° C | 65% | 1013.6 hPa | 0 mm | - | - | - |
| 1778044178 | 5.56° C | 61% | 1013.5 hPa | 0 mm | - | - | - |
| 1778043578 | 5.56° C | 58% | 1013.7 hPa | 0 mm | - | - | - |
| 1778042078 | 7.22° C | 55% | 1013.3 hPa | 0 mm | - | - | - |
| 1778040879 | 7.78° C | 50% | 1013 hPa | 0 mm | - | - | - |
| 1778040579 | 7.78° C | 50% | 1013.1 hPa | 0 mm | - | - | - |
| 1778040279 | 8.33° C | 49% | 1013 hPa | 0 mm | - | - | - |
| 1778039979 | 8.33° C | 49% | 1013 hPa | 0 mm | - | - | - |
| 1778039679 | 8.89° C | 49% | 1013 hPa | 0 mm | - | - | - |
| 1778039379 | 8.89° C | 48% | 1012.8 hPa | 0 mm | - | - | - |
| 1778039079 | 8.89° C | 48% | 1012.8 hPa | 0 mm | - | - | - |
| 1778038779 | 9.44° C | 47% | 1012.8 hPa | 0 mm | - | - | - |
| 1778038479 | 9.44° C | 45% | 1012.7 hPa | 0 mm | - | - | - |
| 1778038179 | 10° C | 45% | 1012.9 hPa | 0 mm | - | - | - |
| 1778037879 | 10° C | 44% | 1012.8 hPa | 0 mm | - | - | - |
| 1778037579 | 10° C | 44% | 1012.8 hPa | 0 mm | - | - | - |
| 1778037279 | 10° C | 45% | 1012.5 hPa | 0 mm | - | - | - |
| 1778036979 | 10° C | 45% | 1012.5 hPa | 0 mm | - | - | - |
| 1778036679 | 10.56° C | 44% | 1012.4 hPa | 0 mm | - | - | - |
| 1778036379 | 10.56° C | 44% | 1012.3 hPa | 0 mm | - | - | - |
| 1778036079 | 10.56° C | 43% | 1012.3 hPa | 0 mm | - | - | - |
| 1778035779 | 11.11° C | 43% | 1012.2 hPa | 0 mm | - | - | - |
| 1778035479 | 11.11° C | 43% | 1012.1 hPa | 0 mm | - | - | - |
| 1778035179 | 11.11° C | 42% | 1012.1 hPa | 0 mm | - | - | - |
| 1778034879 | 11.11° C | 42% | 1012.1 hPa | 0 mm | - | - | - |
* Rain latest hour (hover to see other rain measurements)
** Current wind speed in m/s (hover to see current wind gust speed)